Vertical_Velocity
2 -1 3 -2 -4 -2 0 -1 -4 -1 2 1 -11 -1 4 -3 -3 -2 -1 0 -2 -1 0 -0 -0 -1 0 -0 -0 0 0 0 1 1 1 1 -0 -1 -1 -1 -1 -1 -1 -0 -0 -0 -1 -0 -1
1 2 1 0 1 1 -3 1 -1 -1 5 -1 4 4 4 -6 -1 -3 -3 -1 -0 -2 -1 -2 1 1 -1 0 -1 -0 -0 -0 0 -1 -1 -0 -1 1 -0 0 0 -1 0 1 1 -0 -1 -0 -1
1 1 6 -3 -1 -6 -4 -1 1 -1 3 2 2 2 3 -4 -2 -3 -3 -4 1 0 -0 -0 2 -0 -0 0 -1 -0 0 0 1 0 0 0 -0 -1 -1 -2 -1 0 1 -1 0 1 1 1 2
-4 3 0 -3 -1 -2 -3 -0 -1 -2 -0 -0 -0 4 -0 1 -0 -1 -4 -3 -1 -0 1 -1 1 0 -1 -1 -0 -2 -1 -1 0 0 1 0 0 1 1 1 -0 -1 0 0 -1 -1 -1 -1 -0
2 0 4 -2 -1 3 -2 4 4 0 3 -1 -1 -5 -3 -2 -0 -2 -3 -2 -1 -1 -1 -1 1 -1 -0 -1 -0 1 0 -0 -0 -1 -1 -1 -1 -1 -1 -1 0 -0 -1 -0 0 0 -0 0 -0
-4 1 -1 -7 2 -2 3 2 2 -1 3 2 1 -0 -2 -3 -2 -1 -4 -2 -2 -2 -1 -1 0 0 0 -0 -0 -0 -0 -1 -1 -1 -2 -1 -2 -1 -1 -1 -2 -2 -1 -1 -2 -1 -1 -1 -1
-6 -5 -6 0 0 2 2 -2 2 2 -0 2 -1 -2 -3 -3 -3 -3 -3 -2 0 -1 -2 -1 0 1 -1 -1 -1 0 -0 -0 -1 -1 -2 -2 -1 -1 -1 -1 -1 0 -1 -1 0 0 1 0 0
1 -0 -2 4 -1 1 0 1 -2 -1 -1 -0 -1 -2 -5 -1 -2 -2 -3 -1 1 0 -1 -1 -0 0 1 1 -1 -0 -0 -1 -0 0 -0 1 -1 -1 -1 -0 -1 -2 -0 -1 -2 -2 -1 -1 -0
-5 -3 -3 -1 1 -5 -3 0 -0 -0 0 0 0 1 -2 -0 -0 -1 -2 -1 0 -0 -0 -2 -1 0 0 -0 -1 -0 0 -0 -0 -0 -1 0 1 0 0 0 1 -0 0 -2 -2 0 -1 -2 -0
-3 -1 -2 -3 -4 5 1 3 1 -0 -1 -0 -4 -1 0 -0 -1 -0 1 -2 -1 1 -1 -1 -1 -1 -0 -1 -1 -1 -1 -1 0 1 0 0 0 -1 -1 -0 -1 -0 -1 -0 0 -0 -0 -0 0
-4 -1 -2 -6 -1 1 3 1 -5 -1 0 -2 2 2 -2 -0 -1 -1 -1 -0 -2 0 -2 -0 -0 -1 -1 -1 0 0 -0 0 0 0 0 1 -0 -0 1 -0 -1 -0 -0 -0 -0 -0 -1 0 0
-4 -3 -1 -4 -0 -3 -2 2 -2 1 0 1 1 -1 0 0 0 -1 -0 -0 -2 2 1 -1 -1 -0 -0 0 0 1 -0 -0 0 0 -1 -0 0 -1 -2 -1 -0 -2 -1 0 -0 0 -0 -2 -1
4 -3 -1 0 -0 1 0 0 -0 1 0 1 -1 -0 -1 0 -1 -2 0 -1 -1 1 -1 1 0 -0 0 1 1 -0 -0 0 -0 -0 -0 0 -0 -0 0 -1 -1 -0 -0 -2 -0 1 2 1 -0
-1 -1 -1 -1 -1 1 -2 -1 0 -1 0 -1 -1 -1 -1 1 0 -2 -1 0 0 0 -0 -1 -0 -0 0 0 0 -0 -0 -1 -2 -1 -1 -2 -2 -1 0 3 3 -0 0 3 2 -0 -2 -0 1
-1 -4 1 1 0 0 -1 -0 -0 -0 0 1 -0 -1 -0 0 -0 -0 1 1 0 1 0 -0 0 0 0 -1 -1 -1 -2 -1 -0 -0 -1 -0 -1 -1 0 -0 -1 1 1 -0 -1 1 1 -1 -2
1 5 -1 -0 -0 1 -0 -1 -2 -1 -1 -1 -3 -3 -2 -2 -3 -1 1 0 0 -1 -0 -0 -0 -0 -1 -1 -2 -1 -1 -2 -1 -0 -0 -0 -0 -0 0 2 2 1 0 1 1 -1 -0 -0 1
1 -1 -1 1 -0 0 -1 0 -1 -2 -2 -3 -1 -1 -0 -3 -1 1 0 -2 -1 -2 -1 -1 -0 -1 -1 -2 -1 -1 -1 -1 -0 -0 0 1 -0 -1 0 1 -1 -1 1 1 -1 2 -3 -1 0
-6 0 -0 0 -1 -0 -2 1 0 -1 -1 -1 -1 -0 -0 -0 2 1 2 0 0 -1 -1 -1 -1 -1 0 0 0 -1 -2 -1 -1 -0 0 -0 -1 -1 1 1 0 0 -0 -1 -2 -4 1 -1 0
0 -0 1 1 1 1 -2 -2 0 -2 -4 -1 2 1 1 -1 -1 1 1 0 0 1 -1 1 -0 -2 -0 -2 -2 -1 -1 -1 -2 -2 -2 -2 -1 -1 0 0 0 -1 0 -2 -2 -1 -1 2 -4
2 0 0 -0 -2 -1 -3 -3 -3 -5 -2 -0 2 -0 3 -2 -0 0 -1 -0 2 2 -1 -0 -0 -0 -2 -0 -1 -1 -0 2 -1 1 -1 1 -1 -3 -0 -0 -1 -0 -1 -2 -2 -3 -0 -1 -3
1 -1 -0 -2 -1 -1 -2 -9 -4 -0 -2 -1 1 -1 -0 -0 0 1 0 1 2 -1 0 -1 -1 -1 -1 -0 -1 -1 -3 -3 -1 -2 -1 -1 -2 -1 -1 -1 -0 -1 -1 -2 -2 -2 -4 2 -0
-1 -0 -1 -0 -2 -2 -2 -8 -1 -3 2 1 -0 0 1 1 1 2 1 0 2 0 0 1 -1 -0 -0 -1 -1 -1 -1 -1 -1 -2 -2 -0 1 -0 0 0 -1 -1 -1 -1 -2 -2 -1 -3 -1
-3 -1 -1 -2 -2 -2 -2 -1 -3 -3 0 -2 -3 0 0 2 -0 -3 -2 -1 -0 1 1 0 0 0 -1 -1 -1 -1 -1 -1 -1 -1 -0 1 -1 0 0 -1 -2 -1 -1 -1 -1 -3 -3 -4 -2
-1 -2 -1 -2 -1 -1 -0 -1 -7 -1 -0 0 1 0 1 0 1 -0 -2 -2 -1 -0 2 1 -1 -1 -0 0 -2 -3 -1 -1 1 0 -0 2 0 -0 -1 -1 -0 -0 -2 -3 -0 -1 -4 -1 -3
-2 -3 -1 -6 -3 -6 1 0 -14 2 -2 -2 -0 0 0 1 1 -0 3 0 -2 -0 -1 -0 -1 0 0 -0 -1 -0 1 1 1 1 -0 -0 1 0 1 1 -2 -1 -2 1 -1 -4 -1 -2 -1
-1 -0 -1 -5 -3 -3 -1 -6 -2 -1 3 -2 0 -0 -0 -1 -2 -1 -2 -2 -2 -1 -1 -1 -0 0 -0 1 -0 -1 1 1 1 2 1 3 1 -0 1 -2 -3 1 2 -5 -2 -3 -3 -1 -1
-1 -1 -1 -1 0 -3 -1 -5 -2 2 -1 -2 0 -2 -1 0 -3 -3 -0 -1 0 -0 2 0 -0 0 -0 -0 1 1 0 1 2 2 1 -1 1 1 0 -1 2 0 -2 -2 -2 -2 -2 -2 -1
-3 -1 -0 -1 -4 -2 -3 -5 -6 0 1 -1 -2 -3 -3 -0 0 0 -0 -2 -2 -1 -1 -0 0 0 -1 -0 0 0 1 2 3 0 1 1 0 1 -4 3 0 -0 -2 -2 -2 -2 -1 -2 -0
-1 -2 -1 -1 -1 -5 -2 -8 -1 -1 -1 -4 -2 -2 -3 -0 -0 -1 1 -1 0 -0 -2 -1 -0 1 -0 -0 -0 -0 1 2 2 -1 0 -1 1 -1 0 2 -0 1 -2 -1 -2 -0 0 -1 -1
1 -2 1 -0 -1 0 1 -20 1 0 -2 -0 1 -0 3 0 3 -0 -2 0 -0 -0 -0 -0 -1 -1 -1 -0 -1 1 2 1 2 1 -1 -1 -2 -0 -1 -1 -0 0 -1 -1 -2 -3 -2 -2 -2
Height
3161 3164 3167 3171 3177 3173 3172 3176 3176 3178 3180 3182 3183 3183 3185 3184 3186 3190 3188 3190 3191 3192 3193 3194 3194 3195 3195 3195 3195 3195 3194 3194 3193 3192 3191 3190 3190 3189 3188 3187 3186 3185 3184 3182 3181 3179 3178 3176 3175
3159 3162 3165 3168 3170 3168 3170 3173 3175 3176 3178 3180 3182 3183 3183 3185 3187 3188 3189 3190 3191 3192 3193 3194 3194 3195 3195 3195 3195 3194 3194 3194 3193 3193 3192 3191 3190 3189 3188 3187 3186 3185 3184 3182 3181 3179 3178 3177 3175
3156 3160 3165 3165 3166 3166 3169 3171 3174 3175 3177 3179 3181 3183 3183 3184 3187 3188 3189 3191 3192 3193 3194 3194 3195 3195 3195 3195 3195 3194 3194 3194 3193 3193 3192 3191 3190 3189 3189 3188 3187 3185 3184 3183 3181 3180 3178 3177 3175
3153 3158 3162 3162 3162 3165 3167 3169 3172 3174 3175 3178 3180 3182 3184 3184 3186 3188 3190 3191 3192 3193 3193 3194 3194 3194 3194 3194 3194 3193 3193 3192 3192 3191 3191 3190 3189 3188 3187 3187 3186 3185 3184 3182 3181 3180 3178 3177 3175
3150 3155 3158 3159 3161 3163 3166 3168 3170 3173 3174 3176 3178 3180 3183 3184 3186 3188 3189 3190 3192 3192 3193 3193 3193 3193 3193 3193 3192 3192 3191 3191 3190 3189 3189 3188 3188 3187 3186 3185 3184 3183 3182 3181 3180 3178 3177 3176 3174
3147 3152 3153 3157 3160 3163 3164 3167 3168 3169 3171 3174 3176 3179 3181 3183 3185 3187 3188 3189 3190 3191 3191 3191 3192 3192 3192 3191 3191 3190 3190 3189 3188 3188 3188 3187 3186 3185 3184 3183 3182 3181 3180 3179 3177 3176 3175 3174 3173
3142 3147 3151 3156 3159 3161 3162 3165 3167 3168 3171 3172 3174 3177 3181 3183 3185 3186 3187 3188 3189 3189 3190 3190 3190 3189 3189 3189 3189 3188 3188 3187 3187 3186 3185 3184 3183 3182 3181 3180 3178 3177 3176 3176 3175 3174 3173 3172 3171
3141 3147 3150 3155 3157 3160 3161 3163 3164 3166 3169 3172 3174 3177 3180 3182 3184 3185 3186 3187 3188 3188 3188 3188 3188 3187 3187 3187 3186 3186 3185 3184 3183 3183 3182 3181 3180 3178 3178 3176 3175 3174 3173 3172 3172 3171 3170 3169 3168
3138 3145 3148 3152 3155 3159 3161 3162 3163 3165 3169 3172 3174 3176 3179 3181 3182 3184 3185 3186 3186 3187 3186 3186 3186 3186 3186 3185 3184 3184 3183 3182 3181 3179 3178 3177 3176 3174 3173 3173 3171 3170 3170 3168 3167 3167 3166 3165 3165
3137 3142 3146 3150 3154 3158 3159 3161 3163 3166 3167 3170 3174 3176 3178 3180 3181 3183 3183 3184 3185 3185 3185 3185 3185 3184 3184 3183 3181 3180 3179 3178 3177 3176 3175 3173 3172 3170 3168 3168 3167 3165 3165 3164 3163 3162 3160 3160 3159
3134 3141 3145 3150 3154 3158 3158 3160 3163 3165 3167 3170 3174 3176 3178 3179 3180 3181 3182 3182 3183 3183 3183 3183 3182 3182 3181 3180 3179 3177 3176 3175 3173 3172 3170 3168 3167 3165 3164 3163 3162 3161 3159 3159 3158 3157 3155 3154 3153
3132 3140 3145 3148 3153 3155 3158 3160 3162 3165 3168 3170 3172 3174 3176 3177 3178 3180 3181 3182 3181 3181 3180 3180 3179 3178 3177 3176 3175 3173 3172 3170 3169 3167 3165 3164 3162 3161 3159 3157 3156 3154 3152 3151 3150 3149 3148 3147 3147
3132 3139 3144 3148 3152 3155 3158 3159 3162 3165 3167 3168 3170 3172 3174 3175 3177 3178 3179 3179 3178 3178 3177 3176 3176 3175 3174 3172 3171 3170 3168 3166 3165 3162 3160 3157 3156 3154 3152 3151 3150 3148 3146 3144 3143 3141 3140 3139 3139
3132 3139 3144 3147 3151 3154 3157 3158 3161 3164 3166 3168 3169 3171 3172 3174 3174 3175 3175 3175 3174 3174 3173 3173 3172 3171 3170 3168 3167 3165 3163 3161 3159 3157 3155 3151 3149 3147 3145 3144 3143 3140 3137 3136 3134 3133 3132 3131 3130
3133 3140 3143 3147 3150 3152 3156 3158 3159 3162 3165 3166 3167 3169 3170 3171 3172 3172 3171 3171 3171 3170 3169 3168 3167 3166 3165 3163 3162 3160 3158 3156 3153 3151 3148 3145 3141 3138 3136 3134 3133 3131 3129 3127 3125 3124 3122 3121 3121
3133 3139 3142 3146 3148 3151 3154 3156 3158 3160 3162 3164 3165 3166 3167 3168 3168 3168 3168 3168 3167 3166 3165 3164 3163 3162 3160 3158 3157 3154 3152 3149 3146 3143 3140 3136 3133 3130 3127 3125 3124 3122 3121 3118 3117 3115 3113 3111 3110
3131 3135 3140 3144 3147 3149 3153 3155 3156 3158 3160 3161 3162 3163 3163 3164 3165 3165 3165 3164 3162 3162 3161 3160 3158 3156 3155 3153 3150 3148 3144 3141 3138 3134 3131 3128 3125 3122 3120 3117 3115 3113 3112 3110 3108 3106 3103 3102 3100
3130 3134 3139 3142 3147 3148 3150 3153 3154 3156 3157 3158 3159 3160 3160 3160 3162 3161 3161 3160 3158 3157 3155 3154 3153 3151 3148 3146 3144 3140 3137 3133 3130 3126 3123 3120 3117 3114 3112 3109 3107 3105 3104 3103 3100 3096 3094 3091 3088
3131 3135 3138 3141 3144 3146 3148 3150 3151 3153 3154 3154 3156 3156 3156 3156 3156 3156 3155 3154 3153 3152 3150 3148 3146 3144 3142 3139 3136 3133 3129 3125 3121 3118 3115 3112 3110 3107 3104 3102 3100 3098 3097 3095 3091 3089 3085 3084 3080
3130 3134 3137 3141 3143 3145 3146 3146 3148 3149 3149 3151 3151 3151 3151 3150 3150 3150 3149 3148 3147 3146 3144 3142 3140 3137 3135 3132 3129 3126 3122 3119 3116 3112 3109 3106 3103 3100 3097 3095 3094 3093 3091 3088 3086 3082 3079 3076 3073
3129 3134 3137 3141 3142 3144 3143 3143 3144 3145 3145 3146 3146 3147 3145 3145 3144 3143 3142 3142 3141 3139 3137 3135 3133 3131 3129 3125 3122 3119 3116 3112 3109 3104 3101 3099 3098 3095 3093 3091 3090 3089 3088 3086 3082 3078 3073 3070 3068
3130 3135 3137 3139 3142 3143 3143 3141 3139 3140 3142 3142 3142 3142 3141 3140 3139 3138 3136 3136 3135 3133 3131 3129 3127 3125 3123 3120 3117 3114 3110 3106 3102 3099 3096 3095 3094 3093 3091 3090 3089 3087 3085 3082 3079 3074 3069 3064 3062
3131 3134 3136 3138 3140 3142 3141 3142 3133 3136 3138 3137 3137 3136 3135 3134 3133 3132 3131 3129 3128 3128 3126 3124 3122 3120 3118 3115 3112 3108 3104 3101 3097 3096 3094 3093 3092 3091 3090 3089 3087 3085 3082 3079 3076 3071 3067 3061 3057
3131 3134 3136 3138 3140 3140 3138 3139 3131 3133 3132 3132 3132 3131 3130 3129 3128 3127 3126 3125 3124 3124 3122 3119 3117 3115 3113 3111 3107 3104 3100 3097 3095 3094 3093 3092 3091 3090 3089 3087 3085 3082 3080 3077 3073 3068 3063 3057 3052
3132 3135 3137 3142 3141 3139 3135 3137 3129 3128 3127 3128 3128 3127 3126 3126 3125 3123 3123 3122 3121 3119 3117 3115 3114 3112 3110 3107 3104 3100 3097 3095 3094 3093 3092 3091 3090 3089 3088 3085 3082 3080 3077 3075 3071 3066 3058 3053 3049
3132 3135 3135 3144 3143 3135 3135 3129 3124 3125 3124 3124 3125 3124 3123 3122 3120 3119 3118 3117 3116 3115 3113 3112 3110 3108 3106 3104 3101 3097 3095 3094 3092 3092 3091 3090 3089 3088 3086 3083 3081 3078 3075 3073 3068 3062 3056 3051 3048
3131 3133 3135 3135 3136 3137 3131 3125 3124 3122 3122 3122 3120 3120 3120 3118 3117 3116 3115 3114 3113 3111 3109 3108 3106 3104 3103 3101 3099 3096 3094 3092 3091 3090 3089 3089 3088 3087 3084 3082 3079 3076 3074 3070 3065 3060 3055 3050 3046
3131 3134 3134 3134 3139 3141 3128 3123 3118 3119 3120 3121 3120 3119 3118 3115 3114 3113 3112 3111 3110 3108 3106 3104 3102 3101 3099 3098 3096 3095 3093 3092 3090 3089 3088 3087 3087 3084 3082 3080 3077 3074 3071 3066 3061 3058 3053 3049 3045
3130 3130 3131 3132 3133 3133 3134 3119 3116 3117 3118 3118 3117 3116 3114 3112 3112 3111 3109 3107 3106 3104 3102 3100 3099 3098 3096 3095 3093 3092 3091 3090 3089 3087 3086 3085 3084 3082 3080 3078 3075 3072 3068 3063 3060 3056 3052 3049 3045
3125 3126 3128 3129 3129 3128 3127 3118 3115 3114 3114 3115 3114 3111 3109 3107 3106 3105 3104 3102 3101 3099 3098 3097 3095 3094 3093 3092 3091 3089 3088 3087 3086 3085 3084 3083 3081 3079 3077 3075 3073 3069 3064 3060 3057 3054 3051 3047 3043